Regional Weather Roundup
Issued by NWS

Home | Current Version | Previous Version | Graphics & Text | Print | Product List | Glossary On
Versions: 1 2 3 4 5 6 7 8 9 10 11 12 13 14 15 16 17 18 19 20 21 22 23 24 25 26 27
000
ASUS45 KTFX 181610
RWRMT
MONTANA REGIONAL WEATHER ROUNDUP
NATIONAL WEATHER SERVICE GREAT FALLS MT
900 AM MST WED JAN 18 2017

NOTE: "FAIR" INDICATES FEW OR NO CLOUDS BELOW 12000 FEET WITH NO
SIGNIFICANT WEATHER AND/OR OBSTRUCTIONS TO VISIBILITY.

MTZ001>007-043-181700-
WEST OF THE DIVIDE

CITY           SKY/WX    TMP DP  RH WIND       PRES   REMARKS
KALISPELL      CLOUDY    24  20  84 CALM      29.72F
MISSOULA       CLOUDY    21  16  81 CALM      29.79S
BUTTE          CLOUDY    24  15  68 NW5       29.79F
MULLAN PASS    SNOW      29  28  96 VRB6      29.66S VSB 1/4 WCI  23
ANACONDA         N/A     36  18  48 SE21G29   29.74S WCI  24
DEER LODGE       N/A     37  23  56 S15       29.73S WCI  28
EUREKA           N/A     27  25  93 CALM      29.66F
HAMILTON         N/A     41  21  45 S14       29.75F
PLAINS           N/A     22  15  74 CALM      29.76F
RONAN            N/A     20  17  88 MISG      29.76S
$$

MTZ008-052>055-181700-
SOUTHWEST MONTANA

CITY           SKY/WX    TMP DP  RH WIND       PRES   REMARKS
BOZEMAN        CLOUDY     8   3  80 E5        29.80F
DILLON         CLOUDY    34  14  43 SW8       29.84F WCI  27
W YELLOWSTONE  CLOUDY    -8 -13  77 CALM      30.06S HAZE
ENNIS          CLEAR     28  16  59 S28       29.88S WCI  13
TWIN BRIDGES     N/A     29  11  47 SE15      29.85F WCI  18
$$

MTZ009-010-012-014-046-048-049-054-181700-
EAST SLOPES AND CENTRAL MONTANA

CITY           SKY/WX    TMP DP  RH WIND       PRES   REMARKS
CUT BANK       MOCLDY    43  31  62 W8        29.52S
GREAT FALLS    CLOUDY    40  25  55 SW24      29.58R
MALMSTROM AFB  CLOUDY    42  27  57 SW35G41   29.56F
HELENA         CLOUDY    21  13  71 W5        29.75R
AUGUSTA          N/A     38  28  66 SW5       29.57S
BOWMANS CRNR     N/A     33  22  63 S30       29.58R WCI  19
CHOTEAU          N/A     43  28  56 S21       29.56S
CONRAD           N/A     41  31  68 S16       29.60R
POWER            N/A     39  25  58 S20       29.56S WCI  29
RAYNESFORD       N/A     51  20  29 SW28G39   29.57F
ULM              N/A     41  26  54 MISG      29.63R
$$

MTZ011-013-016-021-045-047-050-051-181700-
NORTH CENTRAL MONTANA

CITY           SKY/WX    TMP DP  RH WIND       PRES   REMARKS
HAVRE          CLOUDY    41  30  65 SW17      29.52R
LEWISTOWN      CLOUDY    44  25  47 SW18      29.63F
N BAR RANCH      N/A     36  25  64 CALM      29.65S
CHINOOK          N/A     45  28  53 SW15G25   29.50F
DENTON         MOCLDY    41  28  58 SW26G36   29.55F
FORT BENTON      N/A     48  25  40 MISG      29.56F
GEYSER           N/A     49  21  32 CALM      29.60S
GRASS RANGE      N/A     55  21  27 W15G28    29.57F
JUDITH GAP       N/A     40  22  47 W3        29.70S
ROY              N/A     54  27  34 MISG      29.56F
STANFORD         N/A     42  26  52 S10       29.61F
WINIFRED         N/A     49  24  38 SW23      29.57F
$$

MTZ017>020-022>027-061-062-181700-
NORTHEAST MONTANA

CITY           SKY/WX    TMP DP  RH WIND       PRES   REMARKS
GLASGOW        CLOUDY    31  23  72 SE14      29.56F WCI  21
JORDAN           N/A     41  25  53 W5        29.60F
SIDNEY         CLOUDY    27  21  78 SW18      29.67F WCI  14
WOLF POINT     CLOUDY    20  15  81 NE5       29.62S
PLENTYWOOD       N/A     34  23  64 SE6       29.60S WCI  29
POPLAR           N/A     36  21  55 S7        29.62F WCI  30
SCOBEY           N/A     33  21  61 SE10      29.58  WCI  25
$$

MTZ028>42-056>058-181700-
SOUTHCENTRAL AND SOUTHEAST MONTANA

CITY           SKY/WX    TMP DP  RH WIND       PRES   REMARKS
BAKER          CLOUDY    27  18  69 CALM      29.72F
BILLINGS       CLOUDY    36  19  50 SW24G31   29.71R WCI  24
LIVINGSTON     CLOUDY    43  11  27 SW21G32   29.74F
MILES CITY     CLOUDY    21  14  74 CALM      29.71F
BIG TIMBER     CLEAR     41  14  33 W16G23    29.75F
EKALAKA          N/A     45  20  37 W2        29.72
FORSYTH          N/A     25  16  68 CALM      29.71F
HARLOWTON        N/A     37  20  50 W7        29.70F WCI  31
LAUREL           N/A     32  18  56 S20       29.72F WCI  20
$$

REGIONAL REPORTS...DAKOTAS

CITY           SKY/WX    TMP DP  RH WIND       PRES   REMARKS
WILLISTON      CLOUDY    28  20  71 SW9       29.64F WCI  19
MINOT          CLOUDY    36  27  69 SW17      29.66R WCI  26
DICKINSON      CLOUDY    34  21  59 SW8       29.69S WCI  27
BEACH            N/A     37  23  56 SW18      29.72F WCI  27
CROSBY           N/A     30  25  80 S21       29.61S WCI  17
TIOGA            N/A     32  27  80 SW10      29.65F WCI  24
WATFORD CITY     N/A     30  21  69 SW5       29.67F
BISMARCK       CLOUDY    22  15  75 CALM      29.76S
GRAND FORKS    CLOUDY    24  18  77 SE6       29.72R WCI  17
FARGO          CLOUDY    24  18  77 S9        29.77S WCI  14
BUFFALO SD       N/A     38  21  50 W7        29.68S
RAPID CITY     CLOUDY    28  19  69 CALM      29.76F
$$

REGIONAL REPORTS...WYOMING/IDAHO/WASHINGTON

CITY           SKY/WX    TMP DP  RH WIND       PRES   REMARKS
GILLETTE       CLOUDY    32  18  56 VRB5      29.78F
SHERIDAN       CLOUDY    19  12  74 VRB6      29.73F WCI  11
BUFFALO WY     CLOUDY    33  16  49 S6        29.77S WCI  28
CODY           CLOUDY    20  11  68 CALM      29.84S
YELLOWSTONE LA   N/A     -5  -8  87 CALM      30.04F
IDAHO FALLS    CLOUDY    -1  -3  91 N8        30.09F WCI -15
SALMON         CLOUDY     0  -4  85 CALM      30.02F
BOISE          LGT SNOW  17  13  84 NE5       30.03R FOG
SPOKANE        LGT RAIN  36  33  89 SE13      29.63F WCI  27
$$

REGIONAL REPORTS...ALBERTA

CITY           SKY/WX    TMP DP  RH WIND       PRES   REMARKS
EDMONTON       MOCLDY    37  25  60 SW9       29.15R WCI  31
CALGARY        MOCLDY    36  21  55 VRB2      29.28F
LETHBRIDGE     PTCLDY    37  30  75 S7        29.44S
MEDICINE HAT   CLOUDY    41  34  75 S16G25    29.39F
WATERTON GATE    N/A     41  30  65 SW41G59     N/A
MILK RIVER       N/A     41  34  75 SW25G31     N/A
ONEFOUR          N/A     39  28  65 S6          N/A
$$

REGIONAL REPORTS...SASKATCHEWAN

CITY           SKY/WX    TMP DP  RH WIND       PRES   REMARKS
SWIFT CURRENT  PTCLDY    39  30  70 SW25G31   29.37S WCI  28
REGINA         MOCLDY    27  23  86 SE16      29.49F WCI  14
SASKATOON      MOCLDY    37  30  75 S16G23    29.33F WCI  28
CYPRESS HILLS    N/A     46  28  49 W31G47      N/A
VAL MARIE        N/A     28  25  86 S9          N/A  WCI  20
ROCKGLEN         N/A     34  27  75 S12         N/A  WCI  25
ASSINIBOIA       N/A     36  30  80 S6          N/A  WCI  31
$$




USA.gov is the U.S. government's official web portal to all federal, state and local government web resources and services.